Back to catalog

STARLINK-5937

AliveCommunicationsVLEO
NORAD 56922·PAYLOAD·🇺🇸 United States

Launched Jun 12, 2023 from Cape Canaveral Space Force Station

Loading…

Next Passes (next 24 hours)

TLE

FreshSource: CelesTrak SupGP

Epoch: Sep 14, 2026, 21:35 UTC

1 56922C 23083AY  26257.89979167  .00036749  00000+0  13311-2 0  2574
2 56922  43.0033  82.3999 0001862 271.9845  32.1379 15.27558374    15

Track STARLINK-5937 in real time with AllMySat

Download on the App Store